Weather History for Ellsworth AFB, SD

Change the Weather History Date:

Wednesday, July 3, 2013

  Actual Average Record
Temperature  
Mean Temperature 76 °F -  
Max Temperature 91 °F 81 °F 100 °F (2012)
Min Temperature 60 °F 57 °F 48 °F (1997)
Cooling Degree Days 10    
Growing Degree Days 26 (Base 50)    
Moisture  
Dew Point 49 °F    
Average Humidity 40    
Maximum Humidity 68    
Minimum Humidity 21    
Precipitation  
Precipitation 0.00 in - - ()
Sea Level Pressure  
Sea Level Pressure 29.87 in    
Wind  
Wind Speed 6 mph (South)    
Max Wind Speed 14 mph    
Max Gust Speed 25 mph    
Visibility 10 miles    
Events      
Averages and records for this station are not official NWS values.
T = Trace of Precipitation, MM = Missing Value Source: NWS Daily Summary

Daily Weather History Graph

Daily Weather History Graph

Search for Another Location

Airport:

Trip Planner

Search our weather history database for the weather conditions in past years. The results will help you decide how hot, cold, wet, or windy it might be!

Date:

Astronomy

Jul. 03, 2013 Rise Set
Actual Time 5:14 AM MDT 8:39 PM MDT
Civil Twilight 4:38 AM MDT 9:15 PM MDT
Nautical Twilight 3:50 AM MDT 10:02 PM MDT
Astronomical Twilight 2:50 AM MDT 11:01 PM MDT
Moon 1:58 AM MDT (7/3) 4:48 PM MDT (7/3)
Length of Visible Light 16h 37m
Length of Day
15h 24m
Waning Crescent, 18% of the Moon is Illuminated
Jul 3
Waning Crescent
Jul 8
New
Jul 15
First Quarter
Jul 22
Full
Jul 29
Last Quarter

Hourly Weather History & Observations

Time (MDT) Temp. Dew Point Humidity Pressure Visibility Wind Dir Wind Speed Gust Speed Precip Events Conditions
12:58 AM 65.1 °F 49.3 °F 56% 30.01 in 10.0 mi SSE 3.5 mph - N/A   Clear
1:58 AM 64.0 °F 49.8 °F 60% 29.99 in 10.0 mi SSE 6.9 mph - N/A   Clear
2:58 AM 62.8 °F 49.3 °F 61% 29.96 in 10.0 mi South 4.6 mph - N/A   Scattered Clouds
3:58 AM 62.8 °F 49.6 °F 62% 29.95 in 10.0 mi WSW 2.3 mph - N/A   Mostly Cloudy
4:58 AM 61.5 °F 49.8 °F 65% 29.94 in 10.0 mi South 4.6 mph - N/A   Scattered Clouds
5:58 AM 60.4 °F 50.0 °F 68% 29.94 in 10.0 mi South 3.5 mph - N/A   Clear
6:58 AM 64.4 °F 50.2 °F 60% 29.94 in 10.0 mi South 8.1 mph - N/A   Clear
7:58 AM 68.9 °F 50.9 °F 53% 29.92 in 10.0 mi SSE 6.9 mph - N/A   Clear
8:58 AM 73.9 °F 50.9 °F 44% 29.92 in 10.0 mi SSE 9.2 mph - N/A   Clear
9:58 AM 80.1 °F 48.7 °F 33% 29.88 in 10.0 mi SSE 10.4 mph - N/A   Clear
10:58 AM 82.9 °F 47.7 °F 29% 29.87 in 10.0 mi SE 13.8 mph - N/A   Clear
11:58 AM 86.2 °F 48.0 °F 27% 29.86 in 10.0 mi SSE 12.7 mph 25.3 mph N/A   Partly Cloudy
12:58 PM 87.8 °F 47.5 °F 25% 29.84 in 10.0 mi SSE 12.7 mph 23.0 mph N/A   Partly Cloudy
1:48 PM 89.6 °F 48.2 °F 24% 29.90 in 10.0 mi South 12.7 mph 20.7 mph N/A   Partly Cloudy
1:58 PM 89.6 °F 47.5 °F 23% 29.83 in 10.0 mi Variable 6.9 mph - N/A   Partly Cloudy
2:58 PM 90.3 °F 47.7 °F 23% 29.81 in 10.0 mi SE 10.4 mph - N/A   Partly Cloudy
3:58 PM 90.5 °F 47.3 °F 22% 29.81 in 10.0 mi Calm Calm - N/A   Clear
4:58 PM 91.2 °F 47.5 °F 22% 29.79 in 10.0 mi Variable 3.5 mph - N/A   Clear
5:58 PM 91.4 °F 45.7 °F 21% 29.78 in 10.0 mi Variable 3.5 mph - N/A   Clear
6:58 PM 89.1 °F 47.3 °F 24% 29.78 in 10.0 mi ENE 4.6 mph - N/A   Clear
7:58 PM 83.8 °F 49.3 °F 30% 29.78 in 10.0 mi South 2.3 mph - N/A   Clear
8:58 PM 77.7 °F 48.7 °F 36% 29.79 in 10.0 mi Variable 1.2 mph - N/A   Clear
9:58 PM 75.9 °F 51.4 °F 42% 29.79 in 10.0 mi West 2.3 mph - N/A   Clear
10:58 PM 72.1 °F 52.7 °F 50% 29.79 in 10.0 mi West 4.6 mph - N/A   Clear
11:58 PM 71.6 °F 50.4 °F 47% 29.78 in 10.0 mi SSW 3.5 mph - N/A   Clear